Year,Month,Day,Hour,Minute,Value (Times are PST for temperature in C)
2012,08,05,00,00,19.40
2012,08,05,00,01,19.40
2012,08,05,00,02,19.30
2012,08,05,00,03,19.30
2012,08,05,00,04,19.30
2012,08,05,00,05,19.30
2012,08,05,00,06,19.30
2012,08,05,00,07,19.30
2012,08,05,00,08,19.30
2012,08,05,00,09,19.30
2012,08,05,00,10,19.30
2012,08,05,00,11,19.30
2012,08,05,00,12,19.30
2012,08,05,00,16,19.30
2012,08,05,00,17,19.30
2012,08,05,00,18,19.30
2012,08,05,00,19,19.30
2012,08,05,00,20,19.30
2012,08,05,00,21,19.30
2012,08,05,00,22,19.30
2012,08,05,00,23,19.30
2012,08,05,00,24,19.30
2012,08,05,00,25,19.30
2012,08,05,00,26,19.30
2012,08,05,00,27,19.30
2012,08,05,00,28,19.30
2012,08,05,00,29,19.30
2012,08,05,00,30,19.30
2012,08,05,00,31,19.30
2012,08,05,00,32,19.30
2012,08,05,00,33,19.30
2012,08,05,00,34,19.30
2012,08,05,00,35,19.30
2012,08,05,00,36,19.30
2012,08,05,00,37,19.40
2012,08,05,00,38,19.40
2012,08,05,00,39,19.40
2012,08,05,00,40,19.40
2012,08,05,00,41,19.40
2012,08,05,00,42,19.40
2012,08,05,00,43,19.40
2012,08,05,00,44,19.40
2012,08,05,00,45,19.40
2012,08,05,00,46,19.40
2012,08,05,00,47,19.40
2012,08,05,00,48,19.40
2012,08,05,00,49,19.40
2012,08,05,00,50,19.40
2012,08,05,00,51,19.40
2012,08,05,00,52,19.40
2012,08,05,00,53,19.40
2012,08,05,00,54,19.40
2012,08,05,00,55,19.40
2012,08,05,00,56,19.40
2012,08,05,00,57,19.40
2012,08,05,00,58,19.40
2012,08,05,00,59,19.30
2012,08,05,01,00,19.30
2012,08,05,01,01,19.30
2012,08,05,01,02,19.30
2012,08,05,01,03,19.30
2012,08,05,01,04,19.30
2012,08,05,01,05,19.30
2012,08,05,01,06,19.30
2012,08,05,01,07,19.30
2012,08,05,01,08,19.30
2012,08,05,01,09,19.30
2012,08,05,01,10,19.30
2012,08,05,01,11,19.30
2012,08,05,01,12,19.30
2012,08,05,01,13,19.30
2012,08,05,01,14,19.30
2012,08,05,01,15,19.30
2012,08,05,01,16,19.30
2012,08,05,01,17,19.30
2012,08,05,01,18,19.30
2012,08,05,01,19,19.20
2012,08,05,01,20,19.20
2012,08,05,01,21,19.20
2012,08,05,01,22,19.20
2012,08,05,01,23,19.20
2012,08,05,01,24,19.20
2012,08,05,01,25,19.20
2012,08,05,01,26,19.20
2012,08,05,01,27,19.20
2012,08,05,01,28,19.20
2012,08,05,01,29,19.20
2012,08,05,01,30,19.20
2012,08,05,01,31,19.20
2012,08,05,01,32,19.20
2012,08,05,01,33,19.20
2012,08,05,01,34,19.20
2012,08,05,01,35,19.20
2012,08,05,01,36,19.20
2012,08,05,01,37,19.20
2012,08,05,01,38,19.20
2012,08,05,01,39,19.20
2012,08,05,01,40,19.20
2012,08,05,01,41,19.20
2012,08,05,01,42,19.20
2012,08,05,01,43,19.20
2012,08,05,01,44,19.20
2012,08,05,01,45,19.20
2012,08,05,01,46,19.20
2012,08,05,01,47,19.20
2012,08,05,01,48,19.20
2012,08,05,01,49,19.20
2012,08,05,01,50,19.20
2012,08,05,01,51,19.20
2012,08,05,01,52,19.20
2012,08,05,01,53,19.20
2012,08,05,01,54,19.20
2012,08,05,01,55,19.20
2012,08,05,01,56,19.20
2012,08,05,01,57,19.20
2012,08,05,01,58,19.20
2012,08,05,01,59,19.20
2012,08,05,02,00,19.20
2012,08,05,02,01,19.20
2012,08,05,02,02,19.20
2012,08,05,02,03,19.20
2012,08,05,02,04,19.20
2012,08,05,02,05,19.20
2012,08,05,02,06,19.20
2012,08,05,02,07,19.20
2012,08,05,02,08,19.20
2012,08,05,02,09,19.20
2012,08,05,02,10,19.20
2012,08,05,02,11,19.20
2012,08,05,02,12,19.20
2012,08,05,02,13,19.20
2012,08,05,02,14,19.20
2012,08,05,02,15,19.20
2012,08,05,02,16,19.20
2012,08,05,02,17,19.20
2012,08,05,02,18,19.20
2012,08,05,02,19,19.20
2012,08,05,02,20,19.20
2012,08,05,02,21,19.20
2012,08,05,02,22,19.20
2012,08,05,02,23,19.20
2012,08,05,02,24,19.20
2012,08,05,02,25,19.20
2012,08,05,02,26,19.20
2012,08,05,02,27,19.20
2012,08,05,02,28,19.20
2012,08,05,02,29,19.20
2012,08,05,02,30,19.20
2012,08,05,02,31,19.20
2012,08,05,02,32,19.20
2012,08,05,02,33,19.10
2012,08,05,02,34,19.10
2012,08,05,02,35,19.10
2012,08,05,02,36,19.10
2012,08,05,02,37,19.10
2012,08,05,02,38,19.10
2012,08,05,02,39,19.10
2012,08,05,02,40,19.10
2012,08,05,02,41,19.10
2012,08,05,02,42,19.10
2012,08,05,02,43,19.10
2012,08,05,02,44,19.10
2012,08,05,02,45,19.10
2012,08,05,02,46,19.10
2012,08,05,02,47,19.10
2012,08,05,02,48,19.10
2012,08,05,02,49,19.10
2012,08,05,02,50,19.10
2012,08,05,02,51,19.10
2012,08,05,02,52,19.10
2012,08,05,02,53,19.10
2012,08,05,02,54,19.10
2012,08,05,02,55,19.00
2012,08,05,02,56,18.90
2012,08,05,02,57,18.90
2012,08,05,02,58,18.90
2012,08,05,02,59,18.90
2012,08,05,03,00,18.90
2012,08,05,03,01,18.90
2012,08,05,03,02,18.90
2012,08,05,03,03,18.90
2012,08,05,03,04,18.90
2012,08,05,03,05,18.90
2012,08,05,03,06,18.90
2012,08,05,03,07,18.90
2012,08,05,03,08,18.90
2012,08,05,03,09,18.90
2012,08,05,03,10,18.90
2012,08,05,03,11,18.90
2012,08,05,03,12,18.90
2012,08,05,03,13,18.90
2012,08,05,03,14,18.90
2012,08,05,03,15,18.90
2012,08,05,03,16,18.90
2012,08,05,03,17,18.90
2012,08,05,03,18,18.90
2012,08,05,03,19,18.90
2012,08,05,03,20,18.90
2012,08,05,03,21,18.90
2012,08,05,03,22,18.90
2012,08,05,03,23,18.90
2012,08,05,03,24,18.90
2012,08,05,03,25,18.90
2012,08,05,03,26,18.90
2012,08,05,03,27,18.90
2012,08,05,03,28,18.90
2012,08,05,03,29,18.90
2012,08,05,03,30,18.90
2012,08,05,03,31,18.90
2012,08,05,03,32,18.90
2012,08,05,03,33,18.90
2012,08,05,03,34,18.90
2012,08,05,03,35,18.90
2012,08,05,03,36,18.90
2012,08,05,03,37,18.80
2012,08,05,03,38,18.80
2012,08,05,03,39,18.80
2012,08,05,03,40,18.80
2012,08,05,03,41,18.80
2012,08,05,03,42,18.80
2012,08,05,03,43,18.80
2012,08,05,03,44,18.80
2012,08,05,03,45,18.70
2012,08,05,03,46,18.70
2012,08,05,03,47,18.70
2012,08,05,03,48,18.70
2012,08,05,03,49,18.70
2012,08,05,03,50,18.70
2012,08,05,03,51,18.70
2012,08,05,03,52,18.70
2012,08,05,03,53,18.70
2012,08,05,03,54,18.70
2012,08,05,03,55,18.70
2012,08,05,03,56,18.70
2012,08,05,03,57,18.60
2012,08,05,03,58,18.60
2012,08,05,03,59,18.60
2012,08,05,04,00,18.60
2012,08,05,04,01,18.60
2012,08,05,04,02,18.60
2012,08,05,04,03,18.60
2012,08,05,04,04,18.60
2012,08,05,04,05,18.60
2012,08,05,04,06,18.60
2012,08,05,04,07,18.60
2012,08,05,04,08,18.60
2012,08,05,04,09,18.60
2012,08,05,04,10,18.60
2012,08,05,04,11,18.60
2012,08,05,04,12,18.60
2012,08,05,04,13,18.60
2012,08,05,04,14,18.60
2012,08,05,04,15,18.60
2012,08,05,04,16,18.50
2012,08,05,04,17,18.50
2012,08,05,04,18,18.50
2012,08,05,04,19,18.50
2012,08,05,04,20,18.50
2012,08,05,04,21,18.50
2012,08,05,04,22,18.50
2012,08,05,04,23,18.50
2012,08,05,04,24,18.50
2012,08,05,04,25,18.50
2012,08,05,04,26,18.40
2012,08,05,04,27,18.40
2012,08,05,04,28,18.40
2012,08,05,04,29,18.40
2012,08,05,04,30,18.40
2012,08,05,04,31,18.40
2012,08,05,04,32,18.40
2012,08,05,04,33,18.40
2012,08,05,04,34,18.30
2012,08,05,04,35,18.30
2012,08,05,04,36,18.30
2012,08,05,04,37,18.30
2012,08,05,04,38,18.30
2012,08,05,04,39,18.30
2012,08,05,04,40,18.30
2012,08,05,04,41,18.30
2012,08,05,04,42,18.30
2012,08,05,04,43,18.30
2012,08,05,04,44,18.30
2012,08,05,04,45,18.30
2012,08,05,04,46,18.30
2012,08,05,04,47,18.30
2012,08,05,04,48,18.30
2012,08,05,04,49,18.30
2012,08,05,04,50,18.30
2012,08,05,04,51,18.30
2012,08,05,04,52,18.30
2012,08,05,04,53,18.30
2012,08,05,04,54,18.30
2012,08,05,04,55,18.30
2012,08,05,04,56,18.30
2012,08,05,04,57,18.30
2012,08,05,04,58,18.30
2012,08,05,04,59,18.30
2012,08,05,05,00,18.30
2012,08,05,05,01,18.30
2012,08,05,05,02,18.20
2012,08,05,05,03,18.20
2012,08,05,05,04,18.20
2012,08,05,05,05,18.20
2012,08,05,05,06,18.20
2012,08,05,05,07,18.20
2012,08,05,05,08,18.20
2012,08,05,05,09,18.20
2012,08,05,05,10,18.20
2012,08,05,05,11,18.20
2012,08,05,05,12,18.20
2012,08,05,05,13,18.20
2012,08,05,05,14,18.20
2012,08,05,05,15,18.20
2012,08,05,05,16,18.20
2012,08,05,05,17,18.20
2012,08,05,05,18,18.20
2012,08,05,05,19,18.20
2012,08,05,05,20,18.20
2012,08,05,05,21,18.20
2012,08,05,05,22,18.20
2012,08,05,05,23,18.20
2012,08,05,05,24,18.20
2012,08,05,05,25,18.20
2012,08,05,05,26,18.20
2012,08,05,05,27,18.20
2012,08,05,05,28,18.20
2012,08,05,05,29,18.20
2012,08,05,05,30,18.20
2012,08,05,05,31,18.10
2012,08,05,05,32,18.10
2012,08,05,05,33,18.10
2012,08,05,05,34,18.10
2012,08,05,05,35,18.10
2012,08,05,05,36,18.10
2012,08,05,05,37,18.10
2012,08,05,05,38,18.10
2012,08,05,05,39,18.10
2012,08,05,05,40,18.10
2012,08,05,05,41,18.10
2012,08,05,05,42,18.10
2012,08,05,05,43,18.10
2012,08,05,05,44,18.10
2012,08,05,05,45,18.10
2012,08,05,05,46,18.10
2012,08,05,05,47,18.10
2012,08,05,05,48,18.10
2012,08,05,05,49,18.10
2012,08,05,05,50,18.10
2012,08,05,05,51,18.10
2012,08,05,05,52,18.10
2012,08,05,05,53,18.10
2012,08,05,05,54,18.10
2012,08,05,05,55,18.10
2012,08,05,05,56,18.10
2012,08,05,05,57,18.00
2012,08,05,05,58,18.10
2012,08,05,05,59,18.10
2012,08,05,06,00,18.10
2012,08,05,06,01,18.10
2012,08,05,06,02,18.10
2012,08,05,06,03,18.10
2012,08,05,06,04,18.10
2012,08,05,06,05,18.10
2012,08,05,06,06,18.10
2012,08,05,06,07,18.10
2012,08,05,06,08,18.10
2012,08,05,06,09,18.10
2012,08,05,06,10,18.10
2012,08,05,06,11,18.10
2012,08,05,06,12,18.10
2012,08,05,06,13,18.10
2012,08,05,06,14,18.10
2012,08,05,06,15,18.10
2012,08,05,06,16,18.10
2012,08,05,06,17,18.10
2012,08,05,06,18,18.10
2012,08,05,06,19,18.10
2012,08,05,06,20,18.10
2012,08,05,06,21,18.10
2012,08,05,06,22,18.10
2012,08,05,06,23,18.10
2012,08,05,06,24,18.10
2012,08,05,06,25,18.10
2012,08,05,06,26,18.10
2012,08,05,06,27,18.10
2012,08,05,06,28,18.10
2012,08,05,06,29,18.10
2012,08,05,06,30,18.10
2012,08,05,06,31,18.10
2012,08,05,06,32,18.10
2012,08,05,06,33,18.10
2012,08,05,06,34,18.10
2012,08,05,06,35,18.10
2012,08,05,06,36,18.10
2012,08,05,06,37,18.10
2012,08,05,06,38,18.10
2012,08,05,06,39,18.10
2012,08,05,06,40,18.20
2012,08,05,06,41,18.20
2012,08,05,06,42,18.20
2012,08,05,06,43,18.20
2012,08,05,06,44,18.20
2012,08,05,06,45,18.20
2012,08,05,06,46,18.20
2012,08,05,06,47,18.20
2012,08,05,06,48,18.20
2012,08,05,06,49,18.20
2012,08,05,06,50,18.20
2012,08,05,06,51,18.20
2012,08,05,06,52,18.20
2012,08,05,06,53,18.20
2012,08,05,06,54,18.20
2012,08,05,06,55,18.20
2012,08,05,06,56,18.30
2012,08,05,06,57,18.30
2012,08,05,06,58,18.30
2012,08,05,06,59,18.30
2012,08,05,07,00,18.30
2012,08,05,07,01,18.30
2012,08,05,07,02,18.30
2012,08,05,07,03,18.40
2012,08,05,07,04,18.40
2012,08,05,07,05,18.40
2012,08,05,07,06,18.40
2012,08,05,07,07,18.40
2012,08,05,07,08,18.50
2012,08,05,07,09,18.50
2012,08,05,07,10,18.50
2012,08,05,07,11,18.50
2012,08,05,07,12,18.50
2012,08,05,07,13,18.60
2012,08,05,07,14,18.60
2012,08,05,07,15,18.60
2012,08,05,07,16,18.60
2012,08,05,07,17,18.60
2012,08,05,07,18,18.70
2012,08,05,07,19,18.70
2012,08,05,07,20,18.70
2012,08,05,07,21,18.70
2012,08,05,07,22,18.80
2012,08,05,07,23,18.80
2012,08,05,07,24,18.90
2012,08,05,07,25,18.90
2012,08,05,07,26,18.90
2012,08,05,07,27,18.90
2012,08,05,07,28,19.00
2012,08,05,07,29,19.10
2012,08,05,07,30,19.10
2012,08,05,07,31,19.10
2012,08,05,07,32,19.10
2012,08,05,07,33,19.20
2012,08,05,07,34,19.20
2012,08,05,07,35,19.30
2012,08,05,07,36,19.30
2012,08,05,07,37,19.30
2012,08,05,07,38,19.30
2012,08,05,07,39,19.40
2012,08,05,07,40,19.40
2012,08,05,07,41,19.40
2012,08,05,07,42,19.50
2012,08,05,07,43,19.50
2012,08,05,07,44,19.50
2012,08,05,07,45,19.60
2012,08,05,07,46,19.60
2012,08,05,07,47,19.60
2012,08,05,07,48,19.70
2012,08,05,07,49,19.70
2012,08,05,07,50,19.80
2012,08,05,07,51,19.80
2012,08,05,07,52,19.80
2012,08,05,07,53,19.90
2012,08,05,07,54,19.90
2012,08,05,07,55,19.90
2012,08,05,07,56,19.90
2012,08,05,07,57,19.90
2012,08,05,07,58,19.90
2012,08,05,07,59,20.00
2012,08,05,08,00,20.10
2012,08,05,08,01,20.10
2012,08,05,08,02,20.10
2012,08,05,08,03,20.20
2012,08,05,08,04,20.20
2012,08,05,08,05,20.20
2012,08,05,08,06,20.20
2012,08,05,08,07,20.30
2012,08,05,08,08,20.40
2012,08,05,08,09,20.40
2012,08,05,08,10,20.50
2012,08,05,08,11,20.50
2012,08,05,08,12,20.60
2012,08,05,08,13,20.70
2012,08,05,08,14,20.80
2012,08,05,08,15,20.90
2012,08,05,08,16,21.00
2012,08,05,08,17,21.00
2012,08,05,08,18,21.10
2012,08,05,08,19,21.20
2012,08,05,08,20,21.30
2012,08,05,08,21,21.40
2012,08,05,08,22,21.50
2012,08,05,08,23,21.60
2012,08,05,08,24,21.60
2012,08,05,08,25,21.60
2012,08,05,08,26,21.70
2012,08,05,08,27,21.80
2012,08,05,08,28,21.80
2012,08,05,08,29,21.90
2012,08,05,08,30,21.90
2012,08,05,08,31,22.00
2012,08,05,08,32,22.10
2012,08,05,08,33,22.10
2012,08,05,08,34,22.20
2012,08,05,08,35,22.20
2012,08,05,08,36,22.30
2012,08,05,08,37,22.30
2012,08,05,08,38,22.40
2012,08,05,08,39,22.50
2012,08,05,08,40,22.50
2012,08,05,08,41,22.60
2012,08,05,08,42,22.70
2012,08,05,08,43,22.90
2012,08,05,08,44,23.00
2012,08,05,08,45,23.20
2012,08,05,08,46,23.30
2012,08,05,08,47,23.40
2012,08,05,08,48,23.60
2012,08,05,08,49,23.70
2012,08,05,08,50,23.90
2012,08,05,08,51,23.90
2012,08,05,08,52,23.90
2012,08,05,08,53,24.00
2012,08,05,08,54,24.10
2012,08,05,08,55,24.10
2012,08,05,08,56,24.10
2012,08,05,08,57,24.10
2012,08,05,08,58,24.10
2012,08,05,08,59,24.10
2012,08,05,09,00,24.10
2012,08,05,09,01,24.10
2012,08,05,09,02,24.10
2012,08,05,09,03,24.20
2012,08,05,09,04,24.20
2012,08,05,09,05,24.30
2012,08,05,09,06,24.30
2012,08,05,09,07,24.30
2012,08,05,09,08,24.30
2012,08,05,09,09,24.40
2012,08,05,09,10,24.30
2012,08,05,09,11,24.30
2012,08,05,09,12,24.40
2012,08,05,09,13,24.50
2012,08,05,09,14,24.50
2012,08,05,09,15,24.60
2012,08,05,09,16,24.60
2012,08,05,09,17,24.60
2012,08,05,09,18,24.60
2012,08,05,09,19,24.60
2012,08,05,09,20,24.60
2012,08,05,09,21,24.70
2012,08,05,09,22,24.70
2012,08,05,09,23,24.80
2012,08,05,09,24,24.80
2012,08,05,09,25,24.80
2012,08,05,09,26,24.90
2012,08,05,09,27,24.90
2012,08,05,09,28,25.00
2012,08,05,09,29,25.00
2012,08,05,09,30,25.10
2012,08,05,09,31,25.10
2012,08,05,09,32,25.10
2012,08,05,09,33,25.00
2012,08,05,09,34,25.00
2012,08,05,09,35,25.00
2012,08,05,09,36,25.00
2012,08,05,09,37,25.00
2012,08,05,09,38,25.00
2012,08,05,09,39,25.00
2012,08,05,09,40,25.00
2012,08,05,09,41,25.00
2012,08,05,09,42,25.00
2012,08,05,09,43,25.00
2012,08,05,09,44,25.00
2012,08,05,09,45,25.00
2012,08,05,09,46,25.00
2012,08,05,09,47,25.00
2012,08,05,09,48,25.20
2012,08,05,09,49,25.30
2012,08,05,09,50,25.40
2012,08,05,09,51,25.50
2012,08,05,09,52,25.70
2012,08,05,09,53,25.80
2012,08,05,09,54,25.80
2012,08,05,09,55,25.80
2012,08,05,09,56,25.70
2012,08,05,09,57,25.70
2012,08,05,09,58,25.70
2012,08,05,09,59,25.70
2012,08,05,10,00,25.70
2012,08,05,10,01,25.60
2012,08,05,10,02,25.60
2012,08,05,10,03,25.60
2012,08,05,10,04,25.60
2012,08,05,10,05,25.60
2012,08,05,10,06,25.60
2012,08,05,10,07,25.60
2012,08,05,10,08,25.60
2012,08,05,10,09,25.60
2012,08,05,10,10,25.80
2012,08,05,10,11,25.90
2012,08,05,10,12,25.90
2012,08,05,10,13,25.90
2012,08,05,10,14,25.90
2012,08,05,10,15,25.90
2012,08,05,10,16,25.90
2012,08,05,10,17,25.90
2012,08,05,10,18,26.00
2012,08,05,10,19,26.00
2012,08,05,10,20,26.20
2012,08,05,10,21,26.20
2012,08,05,10,22,26.40
2012,08,05,10,23,26.40
2012,08,05,10,24,26.50
2012,08,05,10,25,26.40
2012,08,05,10,26,26.40
2012,08,05,10,27,26.40
2012,08,05,10,28,26.40
2012,08,05,10,29,26.20
2012,08,05,10,30,26.10
2012,08,05,10,31,25.90
2012,08,05,10,32,25.90
2012,08,05,10,33,25.80
2012,08,05,10,34,25.90
2012,08,05,10,35,25.90
2012,08,05,10,36,26.10
2012,08,05,10,37,26.20
2012,08,05,10,38,26.40
2012,08,05,10,39,26.40
2012,08,05,10,40,26.50
2012,08,05,10,41,26.60
2012,08,05,10,42,26.50
2012,08,05,10,43,26.40
2012,08,05,10,44,26.40
2012,08,05,10,45,26.50
2012,08,05,10,46,26.60
2012,08,05,10,47,26.60
2012,08,05,10,48,26.60
2012,08,05,10,49,26.60
2012,08,05,10,50,26.50
2012,08,05,10,51,26.30
2012,08,05,10,52,26.20
2012,08,05,10,53,26.10
2012,08,05,10,54,26.00
2012,08,05,10,55,25.90
2012,08,05,10,56,26.00
2012,08,05,10,57,26.00
2012,08,05,10,58,26.10
2012,08,05,10,59,26.20
2012,08,05,11,00,26.30
2012,08,05,11,01,26.30
2012,08,05,11,02,26.20
2012,08,05,11,03,26.20
2012,08,05,11,04,26.20
2012,08,05,11,05,26.30
2012,08,05,11,06,26.40
2012,08,05,11,07,26.60
2012,08,05,11,08,26.80
2012,08,05,11,09,27.00
2012,08,05,11,10,27.10
2012,08,05,11,11,27.10
2012,08,05,11,12,27.10
2012,08,05,11,13,27.10
2012,08,05,11,14,27.10
2012,08,05,11,15,27.00
2012,08,05,11,16,26.80
2012,08,05,11,17,26.80
2012,08,05,11,18,26.90
2012,08,05,11,19,27.00
2012,08,05,11,20,27.20
2012,08,05,11,21,27.30
2012,08,05,11,22,27.40
2012,08,05,11,23,27.30
2012,08,05,11,24,27.30
2012,08,05,11,25,27.10
2012,08,05,11,26,26.80
2012,08,05,11,27,26.60
2012,08,05,11,28,26.50
2012,08,05,11,29,26.40
2012,08,05,11,30,26.30
2012,08,05,11,31,26.30
2012,08,05,11,32,26.30
2012,08,05,11,33,26.10
2012,08,05,11,34,26.00
2012,08,05,11,35,25.90
2012,08,05,11,36,25.80
2012,08,05,11,37,25.70
2012,08,05,11,38,25.60
2012,08,05,11,39,25.60
2012,08,05,11,40,25.50
2012,08,05,11,41,25.50
2012,08,05,11,42,25.50
2012,08,05,11,43,25.50
2012,08,05,11,44,25.50
2012,08,05,11,45,25.50
2012,08,05,11,46,25.60
2012,08,05,11,47,25.60
2012,08,05,11,48,25.60
2012,08,05,11,49,25.60
2012,08,05,11,50,25.60
2012,08,05,11,51,25.50
2012,08,05,11,52,25.40
2012,08,05,11,53,25.40
2012,08,05,11,54,25.40
2012,08,05,11,55,25.40
2012,08,05,11,56,25.40
2012,08,05,11,57,25.40
2012,08,05,11,58,25.50
2012,08,05,11,59,25.60
2012,08,05,12,00,25.60
2012,08,05,12,01,25.60
2012,08,05,12,02,25.70
2012,08,05,12,03,25.80
2012,08,05,12,04,26.00
2012,08,05,12,05,26.10
2012,08,05,12,06,26.30
2012,08,05,12,07,26.40
2012,08,05,12,08,26.50
2012,08,05,12,09,26.60
2012,08,05,12,10,26.60
2012,08,05,12,11,26.60
2012,08,05,12,12,26.60
2012,08,05,12,13,26.50
2012,08,05,12,14,26.40
2012,08,05,12,15,26.40
2012,08,05,12,16,26.50
2012,08,05,12,17,26.60
2012,08,05,12,18,26.60
2012,08,05,12,19,26.70
2012,08,05,12,20,26.80
2012,08,05,12,21,26.80
2012,08,05,12,22,26.90
2012,08,05,12,23,27.00
2012,08,05,12,24,27.10
2012,08,05,12,25,27.30
2012,08,05,12,26,27.40
2012,08,05,12,27,27.70
2012,08,05,12,28,27.90
2012,08,05,12,29,28.00
2012,08,05,12,30,28.00
2012,08,05,12,31,27.90
2012,08,05,12,32,27.70
2012,08,05,12,33,27.40
2012,08,05,12,34,27.20
2012,08,05,12,35,26.90
2012,08,05,12,36,26.60
2012,08,05,12,37,26.50
2012,08,05,12,38,26.30
2012,08,05,12,39,26.20
2012,08,05,12,40,26.00
2012,08,05,12,41,25.90
2012,08,05,12,42,25.90
2012,08,05,12,43,25.80
2012,08,05,12,44,25.80
2012,08,05,12,45,25.70
2012,08,05,12,46,25.70
2012,08,05,12,47,25.70
2012,08,05,12,48,25.70
2012,08,05,12,49,25.70
2012,08,05,12,50,25.70
2012,08,05,12,51,25.70
2012,08,05,12,52,25.70
2012,08,05,12,53,25.70
2012,08,05,12,54,25.70
2012,08,05,12,55,25.70
2012,08,05,12,56,25.70
2012,08,05,12,57,25.70
2012,08,05,12,58,25.80
2012,08,05,12,59,25.80
2012,08,05,13,00,25.80
2012,08,05,13,01,25.90
2012,08,05,13,02,26.00
2012,08,05,13,03,26.20
2012,08,05,13,04,26.20
2012,08,05,13,05,26.20
2012,08,05,13,06,26.20
2012,08,05,13,07,26.20
2012,08,05,13,08,26.20
2012,08,05,13,09,26.10
2012,08,05,13,10,26.20
2012,08,05,13,11,26.20
2012,08,05,13,12,26.20
2012,08,05,13,13,26.30
2012,08,05,13,14,26.30
2012,08,05,13,15,26.30
2012,08,05,13,16,26.30
2012,08,05,13,17,26.30
2012,08,05,13,18,26.30
2012,08,05,13,19,26.30
2012,08,05,13,20,26.20
2012,08,05,13,21,26.10
2012,08,05,13,22,26.10
2012,08,05,13,23,26.10
2012,08,05,13,24,26.00
2012,08,05,13,25,25.90
2012,08,05,13,26,25.90
2012,08,05,13,27,25.80
2012,08,05,13,28,25.70
2012,08,05,13,29,25.80
2012,08,05,13,30,25.80
2012,08,05,13,31,25.80
2012,08,05,13,32,25.80
2012,08,05,13,33,25.80
2012,08,05,13,34,25.90
2012,08,05,13,35,25.90
2012,08,05,13,36,25.90
2012,08,05,13,37,26.00
2012,08,05,13,38,26.00
2012,08,05,13,39,26.10
2012,08,05,13,40,26.20
2012,08,05,13,41,26.20
2012,08,05,13,42,26.20
2012,08,05,13,43,26.30
2012,08,05,13,44,26.30
2012,08,05,13,45,26.30
2012,08,05,13,46,26.30
2012,08,05,13,47,26.30
2012,08,05,13,48,26.30
2012,08,05,13,49,26.30
2012,08,05,13,50,26.30
2012,08,05,13,51,26.30
2012,08,05,13,52,26.20
2012,08,05,13,53,26.20
2012,08,05,13,54,26.30
2012,08,05,13,55,26.30
2012,08,05,13,56,26.40
2012,08,05,13,57,26.40
2012,08,05,13,58,26.40
2012,08,05,13,59,26.40
2012,08,05,14,00,26.50
2012,08,05,14,01,26.60
2012,08,05,14,02,26.60
2012,08,05,14,03,26.60
2012,08,05,14,04,26.60
2012,08,05,14,05,26.40
2012,08,05,14,06,26.30
2012,08,05,14,07,26.20
2012,08,05,14,08,26.10
2012,08,05,14,09,25.90
2012,08,05,14,10,25.90
2012,08,05,14,11,25.90
2012,08,05,14,12,25.90
2012,08,05,14,13,25.90
2012,08,05,14,14,26.00
2012,08,05,14,15,26.00
2012,08,05,14,16,26.00
2012,08,05,14,17,26.00
2012,08,05,14,18,26.10
2012,08,05,14,19,26.10
2012,08,05,14,20,26.10
2012,08,05,14,21,26.00
2012,08,05,14,22,25.90
2012,08,05,14,23,25.80
2012,08,05,14,24,25.70
2012,08,05,14,25,25.70
2012,08,05,14,26,25.60
2012,08,05,14,27,25.60
2012,08,05,14,28,25.70
2012,08,05,14,29,25.80
2012,08,05,14,30,25.90
2012,08,05,14,31,26.10
2012,08,05,14,32,26.30
2012,08,05,14,33,26.40
2012,08,05,14,34,26.40
2012,08,05,14,35,26.40
2012,08,05,14,36,26.50
2012,08,05,14,37,26.60
2012,08,05,14,38,26.60
2012,08,05,14,39,26.70
2012,08,05,14,40,26.70
2012,08,05,14,41,26.70
2012,08,05,14,42,26.70
2012,08,05,14,43,26.70
2012,08,05,14,44,26.70
2012,08,05,14,45,26.70
2012,08,05,14,46,26.80
2012,08,05,14,47,26.80
2012,08,05,14,48,26.70
2012,08,05,14,49,26.70
2012,08,05,14,50,26.80
2012,08,05,14,51,26.80
2012,08,05,14,52,26.70
2012,08,05,14,53,26.70
2012,08,05,14,54,26.80
2012,08,05,14,55,26.80
2012,08,05,14,56,26.80
2012,08,05,14,57,26.80
2012,08,05,14,58,26.80
2012,08,05,14,59,26.80
2012,08,05,15,00,26.90
2012,08,05,15,01,27.00
2012,08,05,15,02,27.20
2012,08,05,15,03,27.20
2012,08,05,15,04,27.30
2012,08,05,15,05,27.30
2012,08,05,15,06,27.40
2012,08,05,15,07,27.50
2012,08,05,15,08,27.60
2012,08,05,15,09,27.80
2012,08,05,15,10,28.00
2012,08,05,15,11,28.20
2012,08,05,15,12,28.40
2012,08,05,15,13,28.60
2012,08,05,15,14,28.60
2012,08,05,15,15,28.60
2012,08,05,15,16,28.50
2012,08,05,15,17,28.50
2012,08,05,15,18,28.60
2012,08,05,15,19,28.50
2012,08,05,15,20,28.40
2012,08,05,15,21,28.30
2012,08,05,15,22,28.40
2012,08,05,15,23,28.50
2012,08,05,15,24,28.60
2012,08,05,15,25,28.50
2012,08,05,15,26,28.40
2012,08,05,15,27,28.30
2012,08,05,15,28,28.30
2012,08,05,15,29,28.20
2012,08,05,15,30,28.10
2012,08,05,15,31,28.00
2012,08,05,15,32,27.90
2012,08,05,15,33,27.80
2012,08,05,15,34,27.80
2012,08,05,15,35,27.70
2012,08,05,15,36,27.70
2012,08,05,15,37,27.70
2012,08,05,15,38,27.70
2012,08,05,15,39,27.70
2012,08,05,15,40,27.70
2012,08,05,15,41,27.70
2012,08,05,15,42,27.60
2012,08,05,15,43,27.60
2012,08,05,15,44,27.60
2012,08,05,15,45,27.70
2012,08,05,15,46,27.80
2012,08,05,15,47,28.00
2012,08,05,15,48,28.20
2012,08,05,15,49,28.40
2012,08,05,15,50,28.50
2012,08,05,15,51,28.70
2012,08,05,15,52,28.70
2012,08,05,15,53,28.70
2012,08,05,15,54,28.60
2012,08,05,15,55,28.50
2012,08,05,15,56,28.30
2012,08,05,15,57,28.20
2012,08,05,15,58,28.10
2012,08,05,15,59,28.00
2012,08,05,16,00,28.00
2012,08,05,16,01,28.00
2012,08,05,16,02,28.00
2012,08,05,16,03,28.00
2012,08,05,16,04,28.00
2012,08,05,16,05,28.00
2012,08,05,16,06,28.00
2012,08,05,16,07,28.00
2012,08,05,16,08,28.00
2012,08,05,16,09,27.90
2012,08,05,16,10,27.90
2012,08,05,16,11,27.80
2012,08,05,16,12,27.70
2012,08,05,16,13,27.60
2012,08,05,16,14,27.50
2012,08,05,16,15,27.40
2012,08,05,16,16,27.30
2012,08,05,16,17,27.30
2012,08,05,16,18,27.30
2012,08,05,16,19,27.30
2012,08,05,16,20,27.30
2012,08,05,16,21,27.30
2012,08,05,16,22,27.30
2012,08,05,16,23,27.30
2012,08,05,16,24,27.30
2012,08,05,16,25,27.30
2012,08,05,16,26,27.30
2012,08,05,16,27,27.30
2012,08,05,16,28,27.30
2012,08,05,16,29,27.30
2012,08,05,16,30,27.30
2012,08,05,16,31,27.20
2012,08,05,16,32,27.20
2012,08,05,16,33,27.10
2012,08,05,16,34,27.00
2012,08,05,16,35,26.90
2012,08,05,16,36,26.80
2012,08,05,16,37,26.70
2012,08,05,16,38,26.60
2012,08,05,16,39,26.50
2012,08,05,16,40,26.40
2012,08,05,16,41,26.30
2012,08,05,16,42,26.20
2012,08,05,16,43,26.20
2012,08,05,16,44,26.20
2012,08,05,16,45,26.20
2012,08,05,16,46,26.20
2012,08,05,16,47,26.20
2012,08,05,16,48,26.30
2012,08,05,16,49,26.30
2012,08,05,16,50,26.50
2012,08,05,16,51,26.60
2012,08,05,16,52,26.70
2012,08,05,16,53,26.70
2012,08,05,16,54,26.80
2012,08,05,16,55,26.80
2012,08,05,16,56,26.90
2012,08,05,16,57,26.90
2012,08,05,16,58,27.00
2012,08,05,16,59,27.10
2012,08,05,17,00,27.10
2012,08,05,17,01,27.20
2012,08,05,17,02,27.20
2012,08,05,17,03,27.20
2012,08,05,17,04,27.30
2012,08,05,17,05,27.30
2012,08,05,17,06,27.40
2012,08,05,17,07,27.40
2012,08,05,17,08,27.50
2012,08,05,17,09,27.60
2012,08,05,17,10,27.60
2012,08,05,17,11,27.60
2012,08,05,17,12,27.60
2012,08,05,17,13,27.60
2012,08,05,17,14,27.50
2012,08,05,17,15,27.40
2012,08,05,17,16,27.40
2012,08,05,17,17,27.30
2012,08,05,17,18,27.30
2012,08,05,17,19,27.30
2012,08,05,17,20,27.30
2012,08,05,17,21,27.40
2012,08,05,17,22,27.50